Tracking 20942 objects as of 9-Jul-2020
HD Live streaming from Space Station
objects crossing your sky now

FENGYUN 1C DEB

Track FENGYUN 1C DEB now!
10-day predictions


NORAD ID: 30625
Int'l Code: 1999-025ANG
Perigee: 815.7 km
Apogee: 929.9 km
Inclination: 98.9 °
Period: 102.3 minutes
Semi major axis: 7243 km
RCS: 0.017 m2 (small)
Launch date: May 10, 1999
Source: People's Republic of China (PRC)
Launch site: Taiyaun Space Center, China (TSC)

Note: This is SATELLITE DEBRIS
aabbcc
Your satellite tracking list
Your tracking list is empty




NASA's NSSDC Master Catalog

Two Line Element Set (TLE):
1 30625U 99025ANG 20190.75081767 +.00000908 +00000-0 +54280-3 0  9993
2 30625 098.9215 110.3028 0078826 195.7666 164.1047 14.08171411685963
Source of the keplerian elements: AFSPC